Regional Weather Roundup
Issued by NWS

Home | Current Version | Previous Version | Text Only | Print | Product List | Glossary On
Versions: 1 2 3 4 5 6 7 8 9 10 11 12 13 14 15 16 17 18 19 20 21 22 23 24 25 26 27 28 29 30 31 32 33 34 35 36 37 38 39 40 41 42 43 44 45 46 47 48 49 50
000
ASCA44 KEWX 052120
RWRMX

LATIN AMERICA AND CARIBBEAN REGIONAL WEATHER ROUNDUP
NATIONAL WEATHER SERVICE AUSTIN/SAN ANTONIO TX
400 PM CDT TUE MAY 05 2015

NOTE: "FAIR" INDICATED FEW OR NO CLOUDS BELOW 12,000 FEET WITH NO
SIGNIFICANT WEATHER AND/OR OBSTRUCTIONS TO VISIBILITY.

BAJA CALIFORNIA

CITY           SKY/WX    TMP DP  RH WIND       PRES   REMARKS
LORETO         MOSUNNY   77  63  61 NE12      29.86F
LA PAZ         PTSUNNY   82  50  32 N12       29.89F
MEXICALI       SUNNY     84  41  21 E3        29.81F
S.J. DEL CABO  MOSUNNY   79  59  50 SE18      29.91F
TIJUANA        PTSUNNY   66  45  45 W13       30.00S

NORTHWESTERN MEXICO

CITY           SKY/WX    TMP DP  RH WIND       PRES   REMARKS
CULIACAN       PTSUNNY   93  64  38 NW8       29.85F HX  95
DURANGO        PTSUNNY   84  19   9 SW18      30.07F
GUAYMAS        SUNNY     81  61  50 S12       29.83F
HERMOSILLO     SUNNY     88  50  27 S6        29.89F
CD. JUAREZ     MOSUNNY   79  43  27 NW14      29.88F
LOS MOCHIS     PTSUNNY   81  55  41 SW5       29.88F
OBREGON        MOSUNNY   88  45  22 SW6       29.82F

NORTHEASTERN MEXICO

CITY           SKY/WX    TMP DP  RH WIND       PRES   REMARKS
CHIHUAHUA      MOSUNNY   82  28  14 SW6       29.94F
MATAMOROS      CLOUDY    81  73  78 SE21      29.91F
MONTERREY      PTSUNNY   79  68  69 SE6       29.84F
NUEVO LAREDO   CLOUDY    82  75  78 SE6       29.85F
REYNOSA        CLOUDY    81  70  69 SE14G25   29.84F
SALTILLO       PTSUNNY   81  63  54 N17       29.98F
TORREON        PTSUNNY   91  36  14 NE8       29.89F
CD. VICTORIA   PTSUNNY   90  64  43 S20       29.82F HX  91

WESTERN MEXICO

CITY           SKY/WX    TMP DP  RH WIND       PRES   REMARKS
AGUASCALIENTES MOSUNNY   82  32  16 SW13      30.12F
COLIMA         MOSUNNY   84  68  58 W17       29.93F
DEL BAJIO      MOSUNNY   84  43  23 SE3       30.17F
GUADALAJARA    MOSUNNY   88  39  18 NW10      30.06F
MANZANILLO     SUNNY     84  72  65 SW7       29.82F
MAZATLAN       CLOUDY    81  59  47 W13       29.86F
P. VALLARTA    MOSUNNY   84  72  65 SW12      29.86F
URUAPAN        SUNNY     81  55  41 S12       30.10F
ZACATECAS      PTSUNNY   77  37  24 W17       30.18F

CENTRAL MEXICO

CITY           SKY/WX    TMP DP  RH WIND       PRES   REMARKS
CUERNAVACA     MOSUNNY   90  46  22 E5        29.99F
MEXICO CITY    PTSUNNY   79  45  29 E8        30.21F
MORELIA        MOSUNNY   84  50  30 SE8       30.11F
POZA RICA      PTSUNNY   88  73  62 E12       29.85F HX  96
PUEBLA         PTSUNNY   79  48  34 SW5       30.23F
QUERETARO      PTSUNNY   82  45  26 W12       30.19F
S. LUIS POTOSI PTSUNNY   84  39  20 NW9       30.08F
TAMPICO        PTSUNNY   82  72  69 SE21      29.84F
TOLUCA         MOSUNNY   75  37  25 S8        30.30F

SOUTHERN MEXICO

CITY           SKY/WX    TMP DP  RH WIND       PRES   REMARKS
ACAPULCO       SUNNY     88  77  70 S10       29.82F HX 100
B. DE HUATULCO CLOUDY    91  75  59 CALM      29.84F HX 102
OAXACA         MOSUNNY   86  46  25 CALM      30.08F
P. ESCONDIDO   SUNNY     90  79  70 SW12      29.95F HX 105
VERACRUZ       PTSUNNY   88  70  55 SE8       29.85F HX  92
ZIHUATANEJO    SUNNY     88  73  62 SW12      29.84F HX  96

YUCATAN PENINSULA

CITY           SKY/WX    TMP DP  RH WIND       PRES   REMARKS
CAMPECHE       MOSUNNY   86  73  66 N12G23    29.82F HX  93
CANCUN         PTSUNNY   82  73  74 SE7       29.94F
CHETUMAL       MOSUNNY   86  73  66 E10       29.88F HX  93
CD. DEL CARMEN MOSUNNY   90  73  58 N10       29.83F HX  98
COZUMEL        PTSUNNY   79  72  78 SE12      29.94F
MERIDA         MOSUNNY   95  70  43 NE12      29.85F HX 101
MINATITLAN     SUNNY     86  68  54 N14       29.80F
TAPACHULA      MOSUNNY   88  79  74 W7        29.81F HX 102
TUX. GUTIERREZ SUNNY     97  52  21 E14       29.81F HX  94
VILLAHERMOSA   SUNNY     95  66  38 NE9       29.83F HX  98

CENTRAL AMERICA

CITY           SKY/WX    TMP DP  RH WIND       PRES   REMARKS
BELIZE CITY    MOSUNNY   86  75  70 E9        29.88F HX  95
MANAGUA        PTCLDY    95  66  38 E7        29.74F HX  98

CARIBBEAN

CITY           SKY/WX    TMP DP  RH WIND       PRES   REMARKS
ARUBA          MOSUNNY   84  75  74 E30       29.83F HX  92
CURACAO        MOSUNNY   84  72  65 E17       29.89F
KINGSTON       PTSUNNY   86  72  62 SE26      29.89S HX  92
NASSAU         PTSUNNY   81  75  83 N6        30.01S
SAN JUAN       MOSUNNY   84  73  70 NE23      30.03F HX  91
SANTO DOMINGO  MOSUNNY   88  72  58 S12       29.97S HX  94
ST. CROIX      MOSUNNY   82  72  69 E16G25    30.03
ST. KITTS      MOSUNNY   82  72  69 E17       30.03S
ST. MAARTEN    MOSUNNY   84  70  61 E14       30.03S
ST. THOMAS     SUNNY     86  70  58 NE17      30.02  HX  90

$$



USA.gov is the U.S. government's official web portal to all federal, state and local government web resources and services.